| time (UTC) | temp C | wind direction | speed KPH | gust KPH | rain 1hr cm | rain 24hr cm | rain mn cm | humidity % | barometer mb |
| 20260904110042 | 22 | 193 | 3.2 | 11.3 | 0.00 | 0.00 | 0.00 | 56 | 1020.9 |
| 20260904104539 | 22 | 252 | 1.6 | 14.5 | 0.00 | 0.00 | 0.00 | 56 | 1020.9 |
| 20260904103041 | 22 | 258 | 0.0 | 1.6 | 0.00 | 0.00 | 0.00 | 55 | 1020.9 |
| 20260904101535 | 22 | 244 | 0.0 | 4.8 | 0.00 | 0.00 | 0.00 | 53 | 1020.7 |
| 20260904100031 | 22 | 214 | 1.6 | 11.3 | 0.00 | 0.00 | 0.00 | 51 | 1020.7 |
| 20260904094529 | 22 | 253 | 0.0 | 11.3 | 0.00 | 0.00 | 0.00 | 51 | 1020.7 |
| 20260904093027 | 22 | 243 | 0.0 | 0.0 | 0.00 | 0.00 | 0.00 | 49 | 1020.8 |
| 20260904091626 | 22 | 247 | 0.0 | 0.0 | 0.00 | 0.00 | 0.00 | 48 | 1020.7 |
| 20260904090025 | 23 | 246 | 0.0 | 0.0 | 0.00 | 0.00 | 0.00 | 45 | 1020.7 |
| 20260904084519 | 23 | 235 | 0.0 | 0.0 | 0.00 | 0.00 | 0.00 | 44 | 1020.7 |
| 20260904083020 | 23 | 254 | 0.0 | 0.0 | 0.00 | 0.00 | 0.00 | 44 | 1020.7 |
| 20260904081516 | 24 | 268 | 0.0 | 1.6 | 0.00 | 0.00 | 0.00 | 41 | 1020.7 |
| 20260904080015 | 24 | 219 | 0.0 | 0.0 | 0.00 | 0.00 | 0.00 | 41 | 1020.7 |
| 20260904074512 | 24 | 229 | 0.0 | 0.0 | 0.00 | 0.00 | 0.00 | 42 | 1020.5 |
| 20260904073011 | 24 | 156 | 0.0 | 0.0 | 0.00 | 0.00 | 0.00 | 43 | 1020.5 |
| 20260904071527 | 24 | 156 | 0.0 | 0.0 | 0.00 | 0.00 | 0.00 | 43 | 1020.4 |
| 20260904070012 | 23 | 157 | 0.0 | 0.0 | 0.00 | 0.00 | 0.00 | 42 | 1020.5 |
| 20260904064506 | 23 | 156 | 0.0 | 0.0 | 0.00 | 0.00 | 0.00 | 41 | 1020.5 |
| 20260904063004 | 23 | 121 | 0.0 | 0.0 | 0.00 | 0.00 | 0.00 | 41 | 1020.4 |
| 20260904061502 | 24 | 121 | 0.0 | 0.0 | 0.00 | 0.00 | 0.00 | 40 | 1020.3 |
| 20260904060113 | 24 | 121 | 0.0 | 0.0 | 0.00 | 0.00 | 0.00 | 40 | 1020.4 |
| 20260904054555 | 24 | 121 | 0.0 | 0.0 | 0.00 | 0.00 | 0.00 | 40 | 1020.2 |
| 20260904053049 | 24 | 39 | 0.0 | 0.0 | 0.00 | 0.00 | 0.00 | 39 | 1020.3 |
| 20260904051546 | 24 | 149 | 0.0 | 0.0 | 0.00 | 0.00 | 0.00 | 39 | 1020.2 |
| 20260904050042 | 25 | 150 | 0.0 | 0.0 | 0.00 | 0.00 | 0.00 | 38 | 1020.1 |
| 20260904044546 | 25 | 149 | 0.0 | 0.0 | 0.00 | 0.00 | 0.00 | 37 | 1020.1 |
| 20260904043034 | 26 | 14 | 0.0 | 0.0 | 0.00 | 0.00 | 0.00 | 35 | 1020.1 |
| 20260904041526 | 26 | 15 | 0.0 | 0.0 | 0.00 | 0.00 | 0.00 | 34 | 1020.2 |
| 20260904040023 | 27 | 14 | 0.0 | 0.0 | 0.00 | 0.00 | 0.00 | 33 | 1020.2 |
| 20260904034522 | 27 | 129 | 0.0 | 0.0 | 0.00 | 0.00 | 0.00 | 33 | 1020.0 |
| 20260904033013 | 26 | 154 | 0.0 | 0.0 | 0.00 | 0.00 | 0.00 | 34 | 1020.0 |
| 20260904031508 | 27 | 324 | 0.0 | 0.0 | 0.00 | 0.00 | 0.00 | 34 | 1019.8 |
| 20260904030004 | 27 | 313 | 0.0 | 0.0 | 0.00 | 0.00 | 0.00 | 33 | 1019.6 |
| 20260904024603 | 27 | 301 | 0.0 | 0.0 | 0.00 | 0.00 | 0.00 | 33 | 1019.3 |
| 20260904023103 | 28 | 297 | 0.0 | 1.6 | 0.00 | 0.00 | 0.00 | 32 | 1019.1 |
| 20260904021551 | 28 | 292 | 1.6 | 14.5 | 0.00 | 0.00 | 0.00 | 32 | 1019.1 |
| 20260904020046 | 28 | 284 | 4.8 | 16.1 | 0.00 | 0.00 | 0.00 | 31 | 1018.8 |
| 20260904014545 | 29 | 278 | 1.6 | 14.5 | 0.00 | 0.00 | 0.00 | 29 | 1018.6 |
| 20260904013036 | 29 | 264 | 0.0 | 1.6 | 0.00 | 0.00 | 0.00 | 26 | 1018.5 |
| 20260904011538 | 30 | 273 | 0.0 | 9.7 | 0.00 | 0.00 | 0.00 | 25 | 1018.4 |
| 20260904010040 | 30 | 257 | 0.0 | 1.6 | 0.00 | 0.00 | 0.00 | 25 | 1018.4 |
| 20260904004523 | 29 | 269 | 9.7 | 16.1 | 0.00 | 0.00 | 0.00 | 30 | 1018.3 |
| 20260904003019 | 30 | 95 | 1.6 | 12.9 | 0.00 | 0.00 | 0.00 | 30 | 1018.2 |
| 20260904001513 | 30 | 109 | 4.8 | 16.1 | 0.00 | 0.00 | 0.00 | 30 | 1018.4 |
| 20260904000009 | 30 | 112 | 3.2 | 16.1 | 0.00 | 0.00 | 0.00 | 31 | 1018.5 |
| 20260903234505 | 30 | 92 | 6.4 | 17.7 | 0.00 | 0.00 | 0.00 | 29 | 1018.5 |
| 20260903233000 | 30 | 116 | 6.4 | 25.7 | 0.00 | 0.00 | 0.00 | 29 | 1018.6 |
| 20260903231556 | 30 | 95 | 14.5 | 29.0 | 0.00 | 0.00 | 0.00 | 31 | 1018.6 |
| 20260903230052 | 29 | 119 | 16.1 | 32.2 | 0.00 | 0.00 | 0.00 | 31 | 1018.6 |
| 20260903224555 | 30 | 113 | 17.7 | 32.2 | 0.00 | 0.00 | 0.00 | 30 | 1018.8 |
| 20260903223121 | 30 | 86 | 25.7 | 43.5 | 0.00 | 0.00 | 0.00 | 30 | 1018.8 |
| 20260903221520 | 30 | 107 | 24.1 | 38.6 | 0.00 | 0.00 | 0.00 | 29 | 1018.7 |
| 20260903214547 | 32 | 94 | 17.7 | 29.0 | 0.00 | 0.00 | 0.00 | 24 | 1018.9 |
| 20260903213011 | 33 | 52 | 1.6 | 11.3 | 0.00 | 0.00 | 0.00 | 22 | 1019.2 |
| 20260903211619 | 32 | 299 | 0.0 | 1.6 | 0.00 | 0.00 | 0.00 | 21 | 1019.2 |
| 20260903210010 | 32 | 236 | 1.6 | 14.5 | 0.00 | 0.00 | 0.00 | 21 | 1019.3 |
| 20260903204604 | 32 | 240 | 1.6 | 14.5 | 0.00 | 0.00 | 0.00 | 21 | 1019.4 |
| 20260903203017 | 33 | 195 | 11.3 | 20.9 | 0.00 | 0.00 | 0.00 | 20 | 1019.5 |
| 20260903201610 | 32 | 219 | 9.7 | 16.1 | 0.00 | 0.00 | 0.00 | 20 | 1019.6 |
| 20260903194548 | 32 | 246 | 1.6 | 19.3 | 0.00 | 0.00 | 0.00 | 21 | 1020.1 |
| 20260903193008 | 32 | 268 | 0.0 | 16.1 | 0.00 | 0.00 | 0.00 | 21 | 1020.4 |
| 20260903191601 | 32 | 223 | 0.0 | 14.5 | 0.00 | 0.00 | 0.00 | 21 | 1020.6 |
| 20260903184628 | 31 | 297 | 0.0 | 6.4 | 0.00 | 0.00 | 0.00 | 23 | 1021.3 |
| 20260903183010 | 31 | 270 | 4.8 | 16.1 | 0.00 | 0.00 | 0.00 | 23 | 1021.6 |
| 20260903181555 | 31 | 260 | 4.8 | 12.9 | 0.00 | 0.00 | 0.00 | 22 | 1022.0 |
| 20260903174604 | 30 | 33 | 0.0 | 1.6 | 0.00 | 0.00 | 0.00 | 25 | 1022.4 |
| 20260903173021 | 30 | 10 | 0.0 | 1.6 | 0.00 | 0.00 | 0.00 | 24 | 1022.5 |
| 20260903171607 | 30 | 311 | 0.0 | 1.6 | 0.00 | 0.00 | 0.00 | 24 | 1022.6 |
| 20260903164553 | 29 | 249 | 0.0 | 0.0 | 0.00 | 0.00 | 0.00 | 26 | 1022.7 |
| 20260903163010 | 28 | 243 | 0.0 | 1.6 | 0.00 | 0.00 | 0.00 | 27 | 1022.6 |
| 20260903161558 | 28 | 56 | 0.0 | 1.6 | 0.00 | 0.00 | 0.00 | 27 | 1022.7 |
| 20260903154531 | 26 | 235 | 0.0 | 9.7 | 0.00 | 0.00 | 0.00 | 30 | 1022.7 |
| 20260903153118 | 26 | 37 | 0.0 | 1.6 | 0.00 | 0.00 | 0.00 | 31 | 1022.7 |
| 20260903151549 | 25 | 74 | 0.0 | 0.0 | 0.00 | 0.00 | 0.00 | 33 | 1022.8 |
| 20260903150028 | 24 | 41 | 0.0 | 0.0 | 0.00 | 0.00 | 0.00 | 36 | 1022.9 |
| 20260903144522 | 23 | 10 | 0.0 | 0.0 | 0.00 | 0.00 | 0.00 | 40 | 1022.9 |
| 20260903143018 | 22 | 29 | 0.0 | 1.6 | 0.00 | 0.00 | 0.00 | 42 | 1022.9 |
| 20260903141518 | 21 | 43 | 0.0 | 0.0 | 0.00 | 0.00 | 0.00 | 50 | 1022.9 |
| 20260903140010 | 18 | 101 | 0.0 | 0.0 | 0.00 | 0.00 | 0.00 | 55 | 1022.8 |
| 20260903134505 | 17 | 17 | 0.0 | 0.0 | 0.00 | 0.00 | 0.00 | 55 | 1022.6 |
| 20260903133100 | 18 | 342 | 0.0 | 0.0 | 0.00 | 0.00 | 0.00 | 51 | 1022.5 |
| 20260903133003 | 18 | 346 | 0.0 | 0.0 | 0.00 | 0.00 | 0.00 | 51 | 1022.5 |
| 20260903131600 | 19 | 121 | 0.0 | 0.0 | 0.00 | 0.00 | 0.00 | 49 | 1022.2 |
| 20260903130107 | 18 | 121 | 0.0 | 0.0 | 0.00 | 0.00 | 0.00 | 53 | 1022.0 |
| 20260903124547 | 18 | 114 | 0.0 | 0.0 | 0.00 | 0.00 | 0.00 | 52 | 1021.9 |
| 20260903123042 | -17 | 0.0 | 0.0 | 0.00 | 0.00 | 0.00 | 1021.8 | ||
| 20260903121541 | -17 | 0.0 | 0.0 | 0.00 | 0.00 | 0.00 | 1021.6 | ||
| 20260903120034 | -17 | 0.0 | 0.0 | 0.00 | 0.00 | 0.00 | 1021.5 | ||
| 20260903114530 | -17 | 0.0 | 0.0 | 0.00 | 0.00 | 0.00 | 1021.5 | ||
| 20260903113029 | -17 | 0.0 | 0.0 | 0.00 | 0.00 | 0.00 | 1021.3 | ||
| 20260903111537 | -17 | 0.0 | 0.0 | 0.00 | 0.00 | 0.00 | 1021.3 |